Weather History for Cherokee, IA

Change the Weather History Date:

Thursday, September 6, 2012

  Actual Average Record
Temperature  
Mean Temperature 66 °F -  
Max Temperature 85 °F 79 °F 95 °F (1990)
Min Temperature 46 °F 53 °F 33 °F (1956)
Growing Degree Days 16 (Base 50)    
Moisture  
Dew Point 49 °F    
Average Humidity 63    
Maximum Humidity 100    
Minimum Humidity 22    
Precipitation  
Precipitation 0.01 in - - ()
Sea Level Pressure  
Sea Level Pressure 29.92 in    
Wind  
Wind Speed 3 mph (SSE)    
Max Wind Speed 16 mph    
Max Gust Speed 23 mph    
Visibility 10 miles    
Events Rain , Thunderstorm    
Averages and records for this station are not official NWS values.
T = Trace of Precipitation, MM = Missing Value Source: NWS Daily Summary

Daily Weather History Graph

Daily Weather History Graph

Search for Another Location

Airport:

Trip Planner

Search our weather history database for the weather conditions in past years. The results will help you decide how hot, cold, wet, or windy it might be!

Date:

Astronomy

Sep. 06, 2012 Rise Set
Actual Time 6:52 AM CDT 7:47 PM CDT
Civil Twilight 6:24 AM CDT 8:15 PM CDT
Nautical Twilight 5:49 AM CDT 8:49 PM CDT
Astronomical Twilight 5:14 AM CDT 9:25 PM CDT
Moon 10:48 PM CDT (9/6) 1:02 PM CDT (9/6)
Length of Visible Light 13h 51m
Length of Day
12h 54m
Waning Gibbous, 67% of the Moon is Illuminated
Sep 6
Waning Gibbous
Sep 8
Last Quarter
Sep 15
New
Sep 22
First Quarter
Sep 29
Full

Hourly Weather History & Observations

Time (CDT) Temp. Dew Point Humidity Pressure Visibility Wind Dir Wind Speed Gust Speed Precip Events Conditions
12:15 AM 51.4 °F 49.3 °F 92% 29.98 in 10.0 mi Calm Calm - N/A   Clear
12:35 AM 54.7 °F 51.8 °F 90% 29.98 in 10.0 mi Calm Calm - N/A   Clear
12:55 AM 52.9 °F 51.3 °F 94% 29.99 in 10.0 mi Calm Calm - N/A   Clear
1:15 AM 51.4 °F 50.5 °F 97% 29.99 in 10.0 mi Calm Calm - N/A   Clear
1:35 AM 51.1 °F 50.0 °F 96% 29.99 in 10.0 mi Calm Calm - N/A   Clear
1:55 AM 52.9 °F 51.8 °F 96% 29.99 in 10.0 mi Calm Calm - N/A   Clear
2:15 AM 50.7 °F 49.5 °F 95% 29.99 in 10.0 mi Calm Calm - N/A   Clear
2:35 AM 51.3 °F 50.0 °F 95% 29.99 in 10.0 mi Calm Calm - N/A   Clear
2:55 AM 51.1 °F 50.2 °F 97% 29.99 in 10.0 mi NNW 4.6 mph - N/A   Clear
3:15 AM 50.2 °F 49.5 °F 97% 29.99 in 10.0 mi Calm Calm - N/A   Clear
3:35 AM 48.7 °F 48.4 °F 99% 30.00 in 10.0 mi Calm Calm - N/A   Clear
3:55 AM 48.9 °F 48.7 °F 99% 30.00 in 10.0 mi Calm Calm - N/A   Clear
4:15 AM 48.6 °F 48.2 °F 99% 30.00 in 10.0 mi Calm Calm - N/A   Clear
4:35 AM 49.1 °F 48.7 °F 99% 30.00 in 10.0 mi Calm Calm - N/A   Clear
4:55 AM 46.9 °F 46.2 °F 97% 30.00 in 7.0 mi Calm Calm - N/A   Clear
5:15 AM 46.9 °F 46.4 °F 98% 30.01 in 10.0 mi SSW 3.5 mph - N/A   Clear
5:35 AM 48.2 °F 48.2 °F 100% 30.00 in 1.2 mi Calm Calm - N/A   Mist
5:55 AM 48.2 °F 48.2 °F 100% 30.00 in 5.0 mi Calm Calm - N/A   Clear
6:15 AM 46.2 °F 46.0 °F 99% 30.01 in 10.0 mi Calm Calm - N/A   Clear
6:35 AM 46.8 °F 46.8 °F 100% 30.02 in 10.0 mi Calm Calm - N/A   Clear
6:55 AM 46.9 °F 46.9 °F 100% 30.01 in 10.0 mi Calm Calm - N/A   Clear
7:15 AM 48.4 °F 48.4 °F 100% 30.01 in 10.0 mi Calm Calm - N/A   Clear
7:35 AM 48.4 °F 48.4 °F 100% 30.02 in 10.0 mi Calm Calm - N/A   Clear
7:55 AM 50.0 °F 50.0 °F 100% 30.02 in 10.0 mi Calm Calm - N/A   Clear
8:15 AM 51.4 °F 51.4 °F 100% 30.02 in 10.0 mi Calm Calm - N/A   Clear
8:35 AM 54.0 °F 53.2 °F 97% 30.01 in 10.0 mi Calm Calm - N/A   Clear
8:55 AM 55.6 °F 53.1 °F 91% 30.01 in 10.0 mi Calm Calm - N/A   Clear
9:15 AM 57.9 °F 54.9 °F 90% 30.01 in 10.0 mi Calm Calm - N/A   Clear
9:35 AM 61.0 °F 56.5 °F 85% 30.01 in 10.0 mi WSW 3.5 mph - N/A   Clear
9:55 AM 63.5 °F 56.1 °F 77% 30.00 in 10.0 mi Calm Calm - N/A   Clear
10:15 AM 69.1 °F 51.6 °F 54% 30.00 in 10.0 mi SSE 6.9 mph - N/A   Clear
10:35 AM 72.0 °F 50.2 °F 46% 30.00 in 10.0 mi SE 5.8 mph - N/A   Clear
10:55 AM 73.4 °F 48.2 °F 41% 29.99 in 10.0 mi SE 5.8 mph - N/A   Clear
11:15 AM 75.2 °F 47.5 °F 37% 29.99 in 10.0 mi South 6.9 mph - N/A   Clear
11:35 AM 76.1 °F 44.6 °F 33% 29.98 in 10.0 mi SSE 6.9 mph - N/A   Clear
11:55 AM 77.0 °F 43.3 °F 30% 29.97 in 10.0 mi SSE 10.4 mph - N/A   Clear
12:15 PM 78.1 °F 43.0 °F 29% 29.97 in 10.0 mi SE 8.1 mph - N/A   Clear
12:35 PM 78.8 °F 43.0 °F 28% 29.95 in 10.0 mi SE 10.4 mph 17.3 mph N/A   Clear
12:55 PM 79.5 °F 41.9 °F 26% 29.94 in 10.0 mi South 10.4 mph - N/A   Clear
1:15 PM 80.2 °F 42.8 °F 26% 29.92 in 10.0 mi SSE 8.1 mph 17.3 mph N/A   Clear
1:35 PM 81.3 °F 43.7 °F 26% 29.90 in 10.0 mi SSE 13.8 mph 17.3 mph N/A   Clear
1:55 PM 82.2 °F 43.9 °F 26% 29.90 in 10.0 mi SSE 11.5 mph 20.7 mph N/A   Clear
2:15 PM 82.0 °F 42.8 °F 25% 29.90 in 10.0 mi South 12.7 mph - N/A   Clear
2:35 PM 83.3 °F 43.2 °F 24% 29.89 in 10.0 mi SSE 10.4 mph 16.1 mph N/A   Clear
2:55 PM 83.5 °F 43.2 °F 24% 29.88 in 10.0 mi SSE 12.7 mph 18.4 mph N/A   Clear
3:15 PM 84.0 °F 43.0 °F 24% 29.86 in 10.0 mi SSE 12.7 mph 19.6 mph N/A   Clear
3:35 PM 84.4 °F 43.5 °F 24% 29.84 in 10.0 mi South 11.5 mph 23.0 mph N/A   Clear
3:55 PM 84.7 °F 42.8 °F 23% 29.82 in 10.0 mi South 16.1 mph 21.9 mph N/A   Clear
4:15 PM 84.6 °F 43.0 °F 23% 29.82 in 10.0 mi South 15.0 mph 19.6 mph N/A   Clear
4:35 PM 83.7 °F 44.4 °F 25% 29.81 in 10.0 mi South 10.4 mph 18.4 mph N/A   Clear
4:55 PM 85.5 °F 42.8 °F 22% 29.81 in 10.0 mi South 15.0 mph - N/A   Clear
5:15 PM 85.3 °F 42.6 °F 22% 29.81 in 10.0 mi South 12.7 mph 17.3 mph N/A   Clear
5:35 PM 85.1 °F 45.1 °F 25% 29.82 in 10.0 mi South 10.4 mph - N/A   Clear
5:55 PM 84.6 °F 45.0 °F 25% 29.82 in 10.0 mi South 9.2 mph - N/A   Clear
6:15 PM 83.8 °F 47.1 °F 28% 29.82 in 10.0 mi South 8.1 mph - N/A   Clear
6:35 PM 82.9 °F 47.7 °F 29% 29.82 in 10.0 mi South 4.6 mph - N/A   Clear
6:55 PM 80.8 °F 50.4 °F 35% 29.82 in 10.0 mi SE 4.6 mph - N/A   Clear
7:15 PM 77.7 °F 50.2 °F 38% 29.82 in 10.0 mi SE 5.8 mph - N/A   Clear
7:35 PM 77.0 °F 49.5 °F 38% 29.81 in 10.0 mi SE 6.9 mph - N/A   Clear
7:55 PM 75.4 °F 50.2 °F 41% 29.81 in 10.0 mi ESE 4.6 mph - N/A   Clear
8:15 PM 74.5 °F 49.8 °F 42% 29.81 in 10.0 mi ESE 6.9 mph - N/A   Clear
8:35 PM 68.9 °F 53.6 °F 58% 29.81 in 10.0 mi SE 3.5 mph - N/A   Scattered Clouds
8:55 PM 70.9 °F 52.0 °F 51% 29.81 in 10.0 mi SE 3.5 mph - N/A   Scattered Clouds
9:15 PM 68.4 °F 53.8 °F 60% 29.80 in 10.0 mi SE 4.6 mph - N/A   Scattered Clouds
9:35 PM 71.6 °F 52.7 °F 51% 29.78 in 10.0 mi SE 9.2 mph - N/A Thunderstorm Scattered Clouds
9:55 PM 71.4 °F 53.6 °F 53% 29.85 in 10.0 mi North 16.1 mph 20.7 mph N/A Thunderstorm Mostly Cloudy
10:15 PM 79.2 °F 53.6 °F 41% 29.83 in 10.0 mi Calm Calm - N/A Rain , Thunderstorm Light Thunderstorms and Rain
10:35 PM 69.8 °F 60.3 °F 72% 29.82 in 10.0 mi East 11.5 mph 20.7 mph 0.01 in Rain Rain
10:55 PM 66.2 °F 61.9 °F 86% 29.79 in 10.0 mi ESE 9.2 mph - 0.01 in   Scattered Clouds
11:15 PM 65.3 °F 62.6 °F 91% 29.81 in 10.0 mi North 3.5 mph - N/A   Clear
11:35 PM 65.5 °F 61.9 °F 88% 29.80 in 10.0 mi East 8.1 mph - N/A   Clear
11:55 PM 65.5 °F 61.5 °F 87% 29.79 in 10.0 mi Calm Calm - N/A Rain , Thunderstorm Light Thunderstorms and Rain